Change the Weather History Date:

Monday, October 7, 2013

  Actual Average (LTCC) Record (LTCC)
Temperature  
Mean Temperature 55 °F -  
Max Temperature 71 °F 82 °F 91 °F (2003)
Min Temperature 39 °F 54 °F 42 °F (2013)
Degree Days  
Heating Degree Days 10    
Growing Degree Days 5 (Base 50)    
Moisture  
Dew Point 26 °F    
Average Humidity 38    
Maximum Humidity 66    
Minimum Humidity 14    
Precipitation  
Precipitation 0.00 in - - ()
Sea Level Pressure  
Sea Level Pressure 30.03 in    
Wind  
Wind Speed 4 mph ()    
Max Wind Speed 9 mph    
Max Gust Speed -    
Visibility 6.2 miles    
Events      
Averages and records for this station are not official NWS values.
T = Trace of Precipitation, MM = Missing Value Source: Averaged Metar Reports

Daily Weather History Graph

Daily Weather History Graph

Search for Another Location

Airport or City:

Trip Planner

Search our weather history database for the weather conditions in past years. The results will help you decide how hot, cold, wet, or windy it might be!

Date:

Astronomy

Oct. 07, 2013 Rise Set
Actual Time 6:16 AM EEST 5:49 PM EEST
Civil Twilight 5:50 AM EEST 6:15 PM EEST
Nautical Twilight 5:19 AM EEST 6:46 PM EEST
Astronomical Twilight 4:49 AM EEST 7:16 PM EEST
Moon 8:39 AM EEST (10/7) 7:20 PM EEST (10/7)
Length of Visible Light 12h 25m
Length of Day
11h 33m
Waxing Crescent, 7% of the Moon is Illuminated
Oct 7
Waxing Crescent
Oct 12
First Quarter
Oct 19
Full
Oct 27
Last Quarter
Nov 3
New

Hourly Weather History & Observations

Time (EEST) Temp. Windchill Dew Point Humidity Pressure Visibility Wind Dir Wind Speed Gust Speed Precip Events Conditions
12:20 AM 44.6 °F 42.2 °F 30.2 °F 57% 30.01 in - South 4.6 mph - N/A   Clear
12:50 AM 44.6 °F - 30.2 °F 57% 30.01 in - Variable 2.3 mph - N/A   Clear
1:20 AM 42.8 °F - 32.0 °F 66% 30.01 in - Calm Calm - N/A   Clear
1:50 AM 44.6 °F 43.1 °F 30.2 °F 57% 30.01 in - SW 3.5 mph - N/A   Clear
2:50 AM 41.0 °F 37.1 °F 30.2 °F 65% 30.01 in - South 5.8 mph - N/A   Clear
3:20 AM 41.0 °F 37.1 °F 30.2 °F 65% 30.01 in - South 5.8 mph - N/A   Clear
3:50 AM 41.0 °F 39.0 °F 30.2 °F 65% 30.01 in - South 3.5 mph - N/A   Clear
4:20 AM 41.0 °F 37.1 °F 28.4 °F 61% 30.01 in - South 5.8 mph - N/A   Clear
4:50 AM 39.2 °F 35.0 °F 28.4 °F 65% 30.04 in - SSW 5.8 mph - N/A   Clear
5:20 AM 39.2 °F 35.0 °F 28.4 °F 65% 30.04 in - South 5.8 mph - N/A   Clear
5:50 AM 41.0 °F 38.0 °F 28.4 °F 61% 30.04 in - South 4.6 mph - N/A   Clear
6:20 AM 39.2 °F 35.9 °F 28.4 °F 65% 30.06 in - WSW 4.6 mph - N/A   Clear
6:50 AM 41.0 °F - 28.4 °F 61% 30.06 in - SSW 2.3 mph - N/A   Clear
7:20 AM 42.8 °F - 30.2 °F 61% 30.06 in - South 2.3 mph - N/A   Clear
7:50 AM 44.6 °F 42.2 °F 30.2 °F 57% 30.06 in - West 4.6 mph - N/A   Clear
8:20 AM 48.2 °F - 30.2 °F 50% 30.06 in - WSW 4.6 mph - N/A   Clear
8:50 AM 50.0 °F - 28.4 °F 43% 30.06 in - SW 8.1 mph - N/A   Clear
9:20 AM 51.8 °F - 28.4 °F 41% 30.06 in - SW 5.8 mph - N/A   Clear
9:50 AM 55.4 °F - 28.4 °F 36% 30.06 in - WSW 4.6 mph - N/A   Clear
10:20 AM 59.0 °F - 26.6 °F 29% 30.06 in - Variable 3.5 mph - N/A   Clear
10:50 AM 62.6 °F - 26.6 °F 26% 30.04 in - Variable 4.6 mph - N/A   Clear
11:20 AM 66.2 °F - 26.6 °F 23% 30.04 in - WSW 5.8 mph - N/A   Clear
11:50 AM 68.0 °F - 26.6 °F 21% 30.04 in 6.2 mi South 3.5 mph - N/A   Partly Cloudy
12:20 PM 68.0 °F - 24.8 °F 20% 30.01 in 6.2 mi North 6.9 mph - N/A   Partly Cloudy
12:50 PM 69.8 °F - 26.6 °F 20% 30.01 in 6.2 mi Variable 4.6 mph - N/A   Partly Cloudy
1:20 PM 69.8 °F - 24.8 °F 18% 30.01 in 6.2 mi North 5.8 mph - N/A   Partly Cloudy
1:50 PM 69.8 °F - 24.8 °F 18% 30.01 in 6.2 mi NNE 8.1 mph - N/A   Scattered Clouds
2:20 PM 69.8 °F - 23.0 °F 17% 29.98 in 6.2 mi Variable 5.8 mph - N/A   Scattered Clouds
2:50 PM 71.6 °F - 19.4 °F 14% 29.98 in 6.2 mi Variable 4.6 mph - N/A   Scattered Clouds
3:20 PM 71.6 °F - 21.2 °F 15% 29.98 in 6.2 mi Variable 3.5 mph - N/A   Scattered Clouds
3:50 PM 69.8 °F - 23.0 °F 17% 30.01 in 6.2 mi NE 9.2 mph - N/A   Scattered Clouds
4:20 PM 69.8 °F - 23.0 °F 17% 30.01 in 6.2 mi NNE 9.2 mph - N/A   Scattered Clouds
4:50 PM 69.8 °F - 21.2 °F 16% 30.01 in 6.2 mi NNW 4.6 mph - N/A   Scattered Clouds
5:20 PM 68.0 °F - 23.0 °F 18% 30.01 in 6.2 mi WNW 3.5 mph - N/A   Scattered Clouds
5:50 PM 66.2 °F - 24.8 °F 21% 30.01 in 6.2 mi WNW 3.5 mph - N/A   Scattered Clouds
6:20 PM 64.4 °F - 24.8 °F 22% 30.01 in 6.2 mi NW 3.5 mph - N/A   Scattered Clouds
6:50 PM 62.6 °F - 21.2 °F 20% 30.01 in 6.2 mi North 6.9 mph - N/A   Partly Cloudy
7:20 PM 59.0 °F - 23.0 °F 25% 30.04 in 6.2 mi NNE 8.1 mph - N/A   Partly Cloudy
7:50 PM 57.2 °F - 24.8 °F 29% 30.04 in 6.2 mi NNE 9.2 mph - N/A   Partly Cloudy
8:20 PM 55.4 °F - 24.8 °F 31% 30.04 in 6.2 mi NNE 9.2 mph - N/A   Partly Cloudy
8:50 PM 55.4 °F - 24.8 °F 31% 30.04 in - NE 9.2 mph - N/A   Clear
9:20 PM 53.6 °F - 24.8 °F 33% 30.06 in - NE 9.2 mph - N/A   Clear
9:50 PM 53.6 °F - 24.8 °F 33% 30.06 in - NNE 8.1 mph - N/A   Clear
10:20 PM 53.6 °F - 26.6 °F 35% 30.06 in - North 6.9 mph - N/A   Clear
10:50 PM 55.4 °F - 26.6 °F 33% 30.06 in - WSW 4.6 mph - N/A   Clear
11:20 PM 51.8 °F - 24.8 °F 35% 30.06 in - WSW 4.6 mph - N/A   Clear
11:50 PM 50.0 °F - 26.6 °F 40% 30.09 in - SW 4.6 mph - N/A   Clear